Location: Newark
(48.7500°N, 4.6667°E)
Time: 20:05:46
(UTC+00:00)

N. Korean satellite - Visible Passes

Search period start: 20 October 2019 00:00
Search period end: 30 October 2019 00:00
Orbit: 455 x 508 km, 97.2° (Epoch: 20 October)

Date Brightness Start Highest point End Pass type
(mag) Time Alt. Az. Time Alt. Az. Time Alt. Az.
20 Oct 9.7 04:48:52 10° NE 04:51:31 19° E 04:54:11 10° SE visible
21 Oct 10.6 04:25:28 10° E 04:25:59 10° E 04:26:30 10° E visible
22 Oct 7.4 05:30:55 10° NNE 05:34:30 58° E 05:38:07 10° S visible
22 Oct 9.9 17:44:50 10° SW 17:47:03 16° W 17:49:18 10° NW visible
23 Oct 8.9 05:05:53 10° NNE 05:09:06 29° E 05:12:22 10° SSE visible
23 Oct 8.8 17:18:29 10° SSW 17:21:33 30° W 17:24:41 10° NNW visible
24 Oct 10.0 04:41:17 10° NE 04:43:37 16° E 04:45:59 10° SE visible
25 Oct 10.5 18:04:02 10° W 18:04:40 10° W 18:05:18 10° WNW visible
26 Oct 7.9 05:23:05 10° NNE 05:26:39 47° E 05:30:13 10° S visible
26 Oct 9.6 17:36:31 10° SW 17:39:06 20° W 17:41:44 10° NW visible
27 Oct 9.2 04:58:08 10° NE 05:01:13 25° E 05:04:18 10° SSE visible
27 Oct 8.3 17:10:23 10° SSW 17:13:37 38° W 17:16:56 10° NNW visible
28 Oct 10.2 04:33:46 10° ENE 04:35:42 14° E 04:37:37 10° ESE visible
29 Oct 6.8 05:40:25 10° NNE 05:44:06 78° ESE 05:47:48 10° S visible
29 Oct 10.1 17:55:01 10° WSW 17:56:40 13° W 17:58:21 10° WNW visible
